| time (UTC) | temp C | wind direction | speed KPH | gust KPH | rain 1hr cm | rain 24hr cm | rain mn cm | humidity % | barometer mb |
| 20260503025522 | 10 | 30 | 0.0 | 0.0 | 0.00 | 0.00 | 0.00 | 85 | 1018.5 |
| 20260503025021 | 10 | 30 | 0.0 | 0.0 | 0.00 | 0.00 | 0.00 | 85 | 1018.5 |
| 20260503024025 | 10 | 30 | 0.0 | 0.0 | 0.00 | 0.00 | 0.00 | 85 | 1018.6 |
| 20260503023520 | 10 | 30 | 0.0 | 0.0 | 0.00 | 0.00 | 0.00 | 84 | 1018.6 |
| 20260503023020 | 10 | 30 | 0.0 | 0.0 | 0.00 | 0.00 | 0.00 | 84 | 1018.6 |
| 20260503022520 | 10 | 30 | 0.0 | 0.0 | 0.00 | 0.00 | 0.00 | 84 | 1018.6 |
| 20260503022021 | 10 | 30 | 0.0 | 0.0 | 0.00 | 0.00 | 0.00 | 84 | 1018.7 |
| 20260503021521 | 10 | 30 | 0.0 | 0.0 | 0.00 | 0.00 | 0.00 | 84 | 1018.7 |
| 20260503021020 | 11 | 30 | 0.0 | 0.0 | 0.00 | 0.00 | 0.00 | 83 | 1018.7 |
| 20260503020521 | 11 | 30 | 0.0 | 0.0 | 0.00 | 0.00 | 0.00 | 83 | 1018.7 |
| 20260503020022 | 11 | 30 | 0.0 | 0.0 | 0.00 | 0.00 | 0.00 | 83 | 1018.7 |
| 20260503015521 | 11 | 30 | 0.0 | 0.0 | 0.00 | 0.00 | 0.00 | 83 | 1018.7 |
| 20260503015020 | 11 | 30 | 0.0 | 0.0 | 0.00 | 0.00 | 0.00 | 83 | 1018.7 |
| 20260503014020 | 11 | 30 | 0.0 | 0.0 | 0.00 | 0.00 | 0.00 | 82 | 1018.8 |
| 20260503013520 | 11 | 30 | 0.0 | 0.0 | 0.00 | 0.00 | 0.00 | 81 | 1018.8 |
| 20260503013021 | 11 | 30 | 0.0 | 0.0 | 0.00 | 0.00 | 0.00 | 82 | 1018.8 |
| 20260503012020 | 11 | 30 | 0.0 | 1.6 | 0.00 | 0.00 | 0.00 | 81 | 1018.8 |
| 20260503010520 | 11 | 30 | 0.0 | 1.6 | 0.00 | 0.00 | 0.00 | 80 | 1019.0 |
| 20260503010020 | 11 | 30 | 0.0 | 0.0 | 0.00 | 0.00 | 0.00 | 80 | 1019.0 |
| 20260503005021 | 11 | 30 | 0.0 | 0.0 | 0.00 | 0.00 | 0.00 | 81 | 1019.0 |
| 20260503004520 | 12 | 30 | 0.0 | 0.0 | 0.00 | 0.00 | 0.00 | 79 | 1019.1 |
| 20260503004020 | 12 | 30 | 0.0 | 0.0 | 0.00 | 0.00 | 0.00 | 79 | 1019.1 |
| 20260503003521 | 12 | 30 | 0.0 | 0.0 | 0.00 | 0.00 | 0.00 | 80 | 1019.2 |
| 20260503002522 | 12 | 30 | 0.0 | 0.0 | 0.00 | 0.00 | 0.00 | 79 | 1019.2 |
| 20260503002021 | 12 | 30 | 1.6 | 3.2 | 0.00 | 0.00 | 0.00 | 79 | 1019.3 |
| 20260503001520 | 12 | 30 | 3.2 | 4.8 | 0.00 | 0.00 | 0.00 | 79 | 1019.4 |
| 20260503001020 | 12 | 30 | 0.0 | 3.2 | 0.00 | 0.00 | 0.00 | 78 | 1019.4 |
| 20260503000520 | 12 | 30 | 1.6 | 3.2 | 0.00 | 0.00 | 0.00 | 79 | 1019.4 |
| 20260503000020 | 12 | 30 | 1.6 | 3.2 | 0.00 | 0.00 | 0.00 | 78 | 1019.4 |
| 20260502235520 | 12 | 30 | 0.0 | 3.2 | 0.00 | 0.00 | 0.00 | 78 | 1019.5 |
| 20260502235020 | 12 | 329 | 0.0 | 3.2 | 0.00 | 0.00 | 0.00 | 77 | 1019.6 |
| 20260502234520 | 13 | 321 | 0.0 | 0.0 | 0.00 | 0.00 | 0.00 | 75 | 1019.6 |
| 20260502234020 | 13 | 321 | 1.6 | 3.2 | 0.00 | 0.00 | 0.00 | 74 | 1019.6 |
| 20260502233520 | 13 | 321 | 0.0 | 0.0 | 0.00 | 0.00 | 0.00 | 74 | 1019.6 |
| 20260502232020 | 13 | 321 | 1.6 | 3.2 | 0.00 | 0.00 | 0.00 | 75 | 1019.7 |
| 20260502231522 | 13 | 321 | 1.6 | 3.2 | 0.00 | 0.00 | 0.00 | 75 | 1019.7 |
| 20260502231019 | 13 | 275 | 0.0 | 3.2 | 0.00 | 0.00 | 0.00 | 75 | 1019.8 |
| 20260502230020 | 13 | 190 | 0.0 | 0.0 | 0.00 | 0.00 | 0.00 | 73 | 1019.8 |
| 20260502225520 | 13 | 190 | 0.0 | 0.0 | 0.00 | 0.00 | 0.00 | 73 | 1019.8 |
| 20260502224520 | 13 | 190 | 0.0 | 0.0 | 0.00 | 0.00 | 0.00 | 73 | 1019.7 |
| 20260502224020 | 13 | 190 | 0.0 | 0.0 | 0.00 | 0.00 | 0.00 | 72 | 1019.7 |
| 20260502223520 | 13 | 190 | 0.0 | 0.0 | 0.00 | 0.00 | 0.00 | 72 | 1019.7 |
| 20260502223020 | 13 | 190 | 0.0 | 0.0 | 0.00 | 0.00 | 0.00 | 72 | 1019.7 |
| 20260502222520 | 13 | 190 | 0.0 | 0.0 | 0.00 | 0.00 | 0.00 | 71 | 1019.7 |
| 20260502222021 | 14 | 190 | 0.0 | 0.0 | 0.00 | 0.00 | 0.00 | 70 | 1019.7 |
| 20260502221520 | 14 | 190 | 0.0 | 0.0 | 0.00 | 0.00 | 0.00 | 69 | 1019.8 |
| 20260502220526 | 14 | 190 | 0.0 | 0.0 | 0.00 | 0.00 | 0.00 | 68 | 1019.7 |
| 20260502220022 | 15 | 190 | 0.0 | 0.0 | 0.00 | 0.00 | 0.00 | 68 | 1019.7 |
| 20260502215523 | 15 | 190 | 0.0 | 0.0 | 0.00 | 0.00 | 0.00 | 67 | 1019.7 |
| 20260502215019 | 15 | 190 | 0.0 | 0.0 | 0.00 | 0.00 | 0.00 | 66 | 1019.7 |
| 20260502214519 | 15 | 190 | 0.0 | 0.0 | 0.00 | 0.00 | 0.00 | 65 | 1019.7 |
| 20260502213519 | 15 | 190 | 0.0 | 1.6 | 0.00 | 0.00 | 0.00 | 65 | 1019.7 |
| 20260502213020 | 15 | 190 | 0.0 | 1.6 | 0.00 | 0.00 | 0.00 | 64 | 1019.7 |
| 20260502212519 | 15 | 189 | 1.6 | 4.8 | 0.00 | 0.00 | 0.00 | 64 | 1019.7 |
| 20260502212020 | 15 | 166 | 0.0 | 3.2 | 0.00 | 0.00 | 0.00 | 64 | 1019.7 |
| 20260502211520 | 16 | 175 | 1.6 | 3.2 | 0.00 | 0.00 | 0.00 | 63 | 1019.7 |
| 20260502211020 | 16 | 190 | 3.2 | 4.8 | 0.00 | 0.00 | 0.00 | 62 | 1019.7 |
| 20260502210519 | 16 | 192 | 1.6 | 3.2 | 0.00 | 0.00 | 0.00 | 63 | 1019.7 |
| 20260502210019 | 16 | 171 | 1.6 | 3.2 | 0.00 | 0.00 | 0.00 | 61 | 1019.7 |
| 20260502205519 | 16 | 167 | 0.0 | 3.2 | 0.00 | 0.00 | 0.00 | 60 | 1019.7 |
| 20260502205020 | 16 | 169 | 0.0 | 3.2 | 0.00 | 0.00 | 0.00 | 59 | 1019.7 |
| 20260502204519 | 17 | 159 | 1.6 | 3.2 | 0.00 | 0.00 | 0.00 | 58 | 1019.7 |
| 20260502204020 | 17 | 175 | 0.0 | 3.2 | 0.00 | 0.00 | 0.00 | 57 | 1019.8 |
| 20260502202519 | 17 | 157 | 1.6 | 4.8 | 0.00 | 0.00 | 0.00 | 56 | 1019.9 |
| 20260502202022 | 17 | 180 | 1.6 | 3.2 | 0.00 | 0.00 | 0.00 | 55 | 1019.9 |
| 20260502201519 | 17 | 160 | 3.2 | 4.8 | 0.00 | 0.00 | 0.00 | 54 | 1019.9 |
| 20260502201019 | 17 | 158 | 1.6 | 4.8 | 0.00 | 0.00 | 0.00 | 55 | 1020.0 |
| 20260502195519 | 17 | 170 | 1.6 | 4.8 | 0.00 | 0.00 | 0.00 | 54 | 1020.0 |
| 20260502195019 | 17 | 180 | 1.6 | 4.8 | 0.00 | 0.00 | 0.00 | 55 | 1020.0 |
| 20260502194519 | 17 | 168 | 1.6 | 3.2 | 0.00 | 0.00 | 0.00 | 55 | 1019.9 |
| 20260502194019 | 17 | 162 | 0.0 | 3.2 | 0.00 | 0.00 | 0.00 | 56 | 1019.9 |
| 20260502193519 | 17 | 154 | 1.6 | 4.8 | 0.00 | 0.00 | 0.00 | 56 | 1019.8 |
| 20260502193019 | 17 | 154 | 1.6 | 3.2 | 0.00 | 0.00 | 0.00 | 56 | 1019.8 |
| 20260502192520 | 17 | 162 | 1.6 | 3.2 | 0.00 | 0.00 | 0.00 | 57 | 1019.8 |
| 20260502191519 | 18 | 161 | 1.6 | 1.6 | 0.00 | 0.00 | 0.00 | 55 | 1019.8 |
| 20260502190519 | 18 | 150 | 1.6 | 3.2 | 0.00 | 0.00 | 0.00 | 52 | 1019.7 |
| 20260502190019 | 18 | 149 | 3.2 | 4.8 | 0.00 | 0.00 | 0.00 | 52 | 1019.6 |
| 20260502185519 | 18 | 141 | 3.2 | 4.8 | 0.00 | 0.00 | 0.00 | 53 | 1019.6 |
| 20260502185034 | 18 | 153 | 1.6 | 4.8 | 0.00 | 0.00 | 0.00 | 53 | 1019.6 |
| 20260502184520 | 19 | 170 | 0.0 | 1.6 | 0.00 | 0.00 | 0.00 | 52 | 1019.6 |
| 20260502184019 | 19 | 168 | 1.6 | 3.2 | 0.00 | 0.00 | 0.00 | 51 | 1019.6 |
| 20260502182019 | 20 | 136 | 1.6 | 4.8 | 0.00 | 0.00 | 0.00 | 48 | 1019.4 |
| 20260502181019 | 21 | 162 | 1.6 | 3.2 | 0.00 | 0.00 | 0.00 | 46 | 1019.5 |
| 20260502180518 | 21 | 170 | 1.6 | 3.2 | 0.00 | 0.00 | 0.00 | 45 | 1019.5 |
| 20260502170519 | 23 | 182 | 3.2 | 8.0 | 0.00 | 0.00 | 0.00 | 37 | 1019.6 |
| 20260502164034 | 24 | 197 | 1.6 | 3.2 | 0.00 | 0.00 | 0.00 | 34 | 1019.7 |
| 20260502163518 | 24 | 243 | 1.6 | 4.8 | 0.00 | 0.00 | 0.00 | 33 | 1019.7 |
| 20260502163020 | 24 | 183 | 4.8 | 4.8 | 0.00 | 0.00 | 0.00 | 34 | 1019.8 |
| 20260502162519 | 24 | 129 | 1.6 | 4.8 | 0.00 | 0.00 | 0.00 | 34 | 1019.9 |
| 20260502161518 | 24 | 238 | 6.4 | 9.7 | 0.00 | 0.00 | 0.00 | 35 | 1019.9 |
| 20260502161018 | 25 | 227 | 4.8 | 8.0 | 0.00 | 0.00 | 0.00 | 34 | 1020.0 |
| 20260502160519 | 25 | 218 | 8.0 | 11.3 | 0.00 | 0.00 | 0.00 | 35 | 1020.0 |
| 20260502152018 | 24 | 303 | 3.2 | 11.3 | 0.00 | 0.00 | 0.00 | 34 | 1020.5 |
| 20260502151518 | 25 | 258 | 3.2 | 9.7 | 0.00 | 0.00 | 0.00 | 34 | 1020.6 |
| 20260502151020 | 24 | 181 | 4.8 | 11.3 | 0.00 | 0.00 | 0.00 | 33 | 1020.6 |
| 20260502150519 | 24 | 327 | 0.0 | 11.3 | 0.00 | 0.00 | 0.00 | 33 | 1020.6 |
| 20260502130518 | 24 | 205 | 4.8 | 32.2 | 0.00 | 0.00 | 0.00 | 35 | 1022.2 |
| 20260502123518 | 23 | 208 | 9.7 | 19.3 | 0.00 | 0.00 | 0.00 | 38 | 1022.6 |
| 20260502123017 | 23 | 209 | 6.4 | 11.3 | 0.00 | 0.00 | 0.00 | 37 | 1022.7 |
| 20260502122521 | 24 | 239 | 4.8 | 12.9 | 0.00 | 0.00 | 0.00 | 37 | 1022.7 |
| 20260502121518 | 24 | 208 | 4.8 | 12.9 | 0.00 | 0.00 | 0.00 | 37 | 1022.8 |
| 20260502121020 | 23 | 201 | 3.2 | 8.0 | 0.00 | 0.00 | 0.00 | 38 | 1022.9 |
| 20260502120518 | 23 | 254 | 11.3 | 16.1 | 0.00 | 0.00 | 0.00 | 37 | 1023.0 |
| 20260502115525 | 23 | 243 | 9.7 | 14.5 | 0.00 | 0.00 | 0.00 | 36 | 1023.1 |
| 20260502115017 | 23 | 316 | 8.0 | 14.5 | 0.00 | 0.00 | 0.00 | 37 | 1023.2 |
| 20260502114534 | 23 | 208 | 1.6 | 4.8 | 0.00 | 0.00 | 0.00 | 37 | 1023.2 |
| 20260502114017 | 23 | 248 | 6.4 | 11.3 | 0.00 | 0.00 | 0.00 | 37 | 1023.3 |
| 20260502113517 | 23 | 248 | 8.0 | 12.9 | 0.00 | 0.00 | 0.00 | 39 | 1023.3 |
| 20260502113017 | 23 | 229 | 9.7 | 19.3 | 0.00 | 0.00 | 0.00 | 37 | 1023.4 |
| 20260502112518 | 22 | 142 | 4.8 | 12.9 | 0.00 | 0.00 | 0.00 | 38 | 1023.5 |
| 20260502112018 | 23 | 209 | 8.0 | 16.1 | 0.00 | 0.00 | 0.00 | 38 | 1023.6 |
| 20260502111024 | 23 | 181 | 8.0 | 22.5 | 0.00 | 0.00 | 0.00 | 39 | 1023.7 |
| 20260502110019 | 23 | 237 | 4.8 | 8.0 | 0.00 | 0.00 | 0.00 | 41 | 1023.9 |
| 20260502105519 | 23 | 213 | 6.4 | 9.7 | 0.00 | 0.00 | 0.00 | 40 | 1024.0 |
| 20260502105019 | 22 | 220 | 4.8 | 14.5 | 0.00 | 0.00 | 0.00 | 39 | 1024.1 |
| 20260502104519 | 23 | 191 | 11.3 | 16.1 | 0.00 | 0.00 | 0.00 | 39 | 1024.2 |
| 20260502103517 | 22 | 249 | 3.2 | 9.7 | 0.00 | 0.00 | 0.00 | 38 | 1024.3 |
| 20260502103018 | 23 | 251 | 3.2 | 8.0 | 0.00 | 0.00 | 0.00 | 39 | 1024.3 |
| 20260502102519 | 22 | 254 | 6.4 | 14.5 | 0.00 | 0.00 | 0.00 | 40 | 1024.4 |
| 20260502101517 | 22 | 196 | 3.2 | 9.7 | 0.00 | 0.00 | 0.00 | 41 | 1024.4 |
| 20260502101017 | 22 | 107 | 6.4 | 12.9 | 0.00 | 0.00 | 0.00 | 39 | 1024.5 |
| 20260502100517 | 22 | 176 | 4.8 | 11.3 | 0.00 | 0.00 | 0.00 | 39 | 1024.6 |
| 20260502091517 | 21 | 324 | 3.2 | 8.0 | 0.00 | 0.00 | 0.00 | 39 | 1025.1 |
| 20260502091017 | 21 | 260 | 4.8 | 11.3 | 0.00 | 0.00 | 0.00 | 41 | 1025.1 |
| 20260502090517 | 21 | 284 | 3.2 | 8.0 | 0.00 | 0.00 | 0.00 | 42 | 1025.2 |
| 20260502071517 | 17 | 334 | 3.2 | 4.8 | 0.00 | 0.00 | 0.00 | 65 | 1025.6 |
| 20260502071022 | 16 | 307 | 4.8 | 8.0 | 0.00 | 0.00 | 0.00 | 67 | 1025.6 |
| 20260502070517 | 16 | 269 | 3.2 | 4.8 | 0.00 | 0.00 | 0.00 | 69 | 1025.6 |
| 20260502070016 | 15 | 299 | 3.2 | 4.8 | 0.00 | 0.00 | 0.00 | 70 | 1025.7 |
| 20260502064517 | 15 | 297 | 3.2 | 4.8 | 0.00 | 0.00 | 0.00 | 70 | 1025.7 |
| 20260502064017 | 15 | 285 | 1.6 | 4.8 | 0.00 | 0.00 | 0.00 | 70 | 1025.7 |
| 20260502063517 | 14 | 319 | 3.2 | 4.8 | 0.00 | 0.00 | 0.00 | 70 | 1025.7 |
| 20260502063016 | 14 | 302 | 4.8 | 4.8 | 0.00 | 0.00 | 0.00 | 71 | 1025.8 |
| 20260502062517 | 13 | 294 | 3.2 | 8.0 | 0.00 | 0.00 | 0.00 | 72 | 1025.7 |
| 20260502062016 | 13 | 289 | 3.2 | 4.8 | 0.00 | 0.00 | 0.00 | 73 | 1025.7 |
| 20260502061017 | 12 | 271 | 3.2 | 3.2 | 0.00 | 0.00 | 0.00 | 74 | 1025.8 |
| 20260502060518 | 12 | 272 | 3.2 | 3.2 | 0.00 | 0.00 | 0.00 | 75 | 1025.7 |
| 20260502060019 | 12 | 272 | 1.6 | 4.8 | 0.00 | 0.00 | 0.00 | 74 | 1025.7 |
| 20260502054518 | 11 | 280 | 1.6 | 3.2 | 0.00 | 0.00 | 0.00 | 76 | 1025.9 |
| 20260502053518 | 11 | 280 | 1.6 | 3.2 | 0.00 | 0.00 | 0.00 | 75 | 1025.8 |
| 20260502053017 | 10 | 296 | 3.2 | 3.2 | 0.00 | 0.00 | 0.00 | 75 | 1025.8 |
| 20260502052517 | 10 | 293 | 4.8 | 4.8 | 0.00 | 0.00 | 0.00 | 75 | 1025.9 |
| 20260502052016 | 10 | 292 | 4.8 | 4.8 | 0.00 | 0.00 | 0.00 | 76 | 1025.8 |
| 20260502051016 | 9 | 298 | 1.6 | 3.2 | 0.00 | 0.00 | 0.00 | 79 | 1025.8 |
| 20260502050517 | 9 | 298 | 1.6 | 3.2 | 0.00 | 0.00 | 0.00 | 80 | 1025.8 |
| 20260502050016 | 8 | 298 | 1.6 | 3.2 | 0.00 | 0.00 | 0.00 | 80 | 1025.8 |
| 20260502044516 | 8 | 46 | 0.0 | 1.6 | 0.00 | 0.00 | 0.00 | 83 | 1025.8 |
| 20260502044016 | 7 | 46 | 1.6 | 1.6 | 0.00 | 0.00 | 0.00 | 84 | 1025.8 |
| 20260502043016 | 7 | 0 | 0.0 | 1.6 | 0.00 | 0.00 | 0.00 | 85 | 1025.8 |
| 20260502042516 | 7 | 340 | 0.0 | 0.0 | 0.00 | 0.00 | 0.00 | 84 | 1025.8 |
| 20260502042020 | 7 | 340 | 0.0 | 0.0 | 0.00 | 0.00 | 0.00 | 84 | 1025.7 |
| 20260502041516 | 7 | 340 | 0.0 | 0.0 | 0.00 | 0.00 | 0.00 | 83 | 1025.7 |
| 20260502041017 | 7 | 340 | 0.0 | 0.0 | 0.00 | 0.00 | 0.00 | 83 | 1025.7 |
| 20260502040519 | 7 | 348 | 0.0 | 1.6 | 0.00 | 0.00 | 0.00 | 83 | 1025.7 |
| 20260502040018 | 7 | 0 | 0.0 | 0.0 | 0.00 | 0.00 | 0.00 | 82 | 1025.7 |
| 20260502035516 | 8 | 1 | 0.0 | 0.0 | 0.00 | 0.00 | 0.00 | 83 | 1025.7 |
| 20260502034516 | 8 | 178 | 0.0 | 0.0 | 0.00 | 0.00 | 0.00 | 83 | 1025.7 |
| 20260502034016 | 8 | 178 | 0.0 | 0.0 | 0.00 | 0.00 | 0.00 | 83 | 1025.7 |
| 20260502033516 | 8 | 174 | 0.0 | 0.0 | 0.00 | 0.00 | 0.00 | 83 | 1025.7 |
| 20260502033016 | 8 | 170 | 0.0 | 0.0 | 0.00 | 0.00 | 0.00 | 84 | 1025.6 |
| 20260502032516 | 8 | 166 | 0.0 | 0.0 | 0.00 | 0.00 | 0.00 | 83 | 1025.6 |
| 20260502032022 | 8 | 163 | 0.0 | 0.0 | 0.00 | 0.00 | 0.00 | 83 | 1025.6 |
| 20260502031516 | 8 | 163 | 0.0 | 0.0 | 0.00 | 0.00 | 0.00 | 83 | 1025.7 |
| 20260502031020 | 8 | 163 | 0.0 | 0.0 | 0.00 | 0.00 | 0.00 | 83 | 1025.6 |
| 20260502030516 | 8 | 163 | 0.0 | 0.0 | 0.00 | 0.00 | 0.00 | 83 | 1025.7 |
| 20260502030016 | 8 | 163 | 0.0 | 0.0 | 0.00 | 0.00 | 0.00 | 83 | 1025.7 |